This is the latest recevied weather packets stored in our database for station/object HB9KBJ-8. If no packets are shown the sender has not sent any weather packets the latest 10 day(s).
| Time | Temp. | Humidity | Pressure | Rain* | Wind** | Luminosity | Snow |
|---|---|---|---|---|---|---|---|
| 1777452739 | 14.44° C | 59% | 1018.5 hPa | 0 mm | - | 552 W/m² | - |
| 1777452441 | 14.44° C | 58% | 1018.5 hPa | 0 mm | - | 657 W/m² | - |
| 1777452155 | 14.44° C | 58% | 1018.5 hPa | 0 mm | - | 680 W/m² | - |
| 1777451847 | 14.44° C | 59% | 1018.5 hPa | 0 mm | - | 670 W/m² | - |
| 1777451545 | 14.44° C | 60% | 1018.4 hPa | 0 mm | - | 671 W/m² | - |
| 1777451246 | 13.89° C | 60% | 1018.4 hPa | 0 mm | - | 629 W/m² | - |
| 1777450942 | 13.89° C | 58% | 1018.4 hPa | 0 mm | - | 601 W/m² | - |
| 1777450643 | 13.89° C | 60% | 1018.3 hPa | 0 mm | - | 601 W/m² | - |
| 1777450339 | 13.89° C | 60% | 1018.3 hPa | 0 mm | - | 661 W/m² | - |
| 1777450052 | 13.89° C | 60% | 1018.4 hPa | 0 mm | - | 654 W/m² | - |
| 1777449741 | 13.33° C | 61% | 1018.4 hPa | 0 mm | - | 413 W/m² | - |
| 1777449452 | 13.33° C | 60% | 1018.3 hPa | 0 mm | - | 313 W/m² | - |
| 1777449147 | 13.33° C | 61% | 1018.3 hPa | 0 mm | - | 299 W/m² | - |
| 1777448847 | 13.33° C | 62% | 1018.2 hPa | 0 mm | - | 304 W/m² | - |
| 1777448542 | 13.33° C | 61% | 1018.1 hPa | 0 mm | - | 264 W/m² | - |
| 1777448236 | 13.33° C | 61% | 1018.1 hPa | 0 mm | - | 258 W/m² | - |
| 1777447935 | 13.33° C | 63% | 1018 hPa | 0 mm | - | 264 W/m² | - |
| 1777447650 | 13.33° C | 64% | 1018.1 hPa | 0 mm | - | 271 W/m² | - |
| 1777447346 | 12.78° C | 66% | 1018 hPa | 0 mm | - | 278 W/m² | - |
| 1777447044 | 12.78° C | 69% | 1018 hPa | 0 mm | - | 258 W/m² | - |
| 1777446742 | 12.78° C | 72% | 1018 hPa | 0 mm | - | 202 W/m² | - |
| 1777446440 | 12.78° C | 73% | 1018 hPa | 0 mm | - | 214 W/m² | - |
| 1777446132 | 12.22° C | 73% | 1018 hPa | 0 mm | - | 185 W/m² | - |
| 1777445853 | 12.22° C | 73% | 1018 hPa | 0 mm | - | 146 W/m² | - |
| 1777445548 | 12.22° C | 73% | 1018 hPa | 0 mm | - | 127 W/m² | - |
* Rain latest hour (hover to see other rain measurements)
** Current wind speed in m/s (hover to see current wind gust speed)